Location: Burgwalden
(48.2830°N, 10.7576°E)
Time: 22:01:09
(UTC+00:00)

COSMOS 2428 - Pass Details

Date: 26 September 2023
Orbit: 842 x 858 km, 70.9° (Epoch: 09 December)

Event Time Altitude Azimuth Distance (km) Brightness Sun altitude
Rises 04:20:14 0° 331° (NNW) 3,415 5.6 -8.9°
Reaches altitude 10° 04:22:41 10° 330° (NNW) 2,477 4.9 -8.4°
Maximum altitude 04:28:22 77° 245° (WSW) 873 2.7 -7.5°
Drops below altitude 10° 04:34:02 10° 160° (SSE) 2,471 5.3 -6.6°
Sets 04:36:29 0° 159° (SSE) 3,406 6.1 -6.2°
